カタログに戻る

ARIANE 42P+ DEB

LostHEO
NORAD 34199·DEBRIS·🇫🇷 France

打ち上げ Oct 28, 1992 から Guiana Space Centre

Loading…

次のパス (今後24時間)

TLE

古いSource: Space-Track

元期: Mar 16, 2026, 20:09 UTC

1 34199U 92072AF  26075.84018745 -.00000108  00000-0  00000-0 0  9993
2 34199   6.6456 257.1362 6439273 315.8942   7.7514  2.90735483139083

AllMySatでARIANE 42P+ DEBをリアルタイム追跡

Download on the App Store